Flag for India Weather past 2 weeks in Tiruvarur, Tamil Nadu, India

Now
82 °F

Passing clouds.


Feels Like: 86 °F
Forecast: 83 / 97 °F
Wind: 12 mph from West

Location: Tiruchchirapalli

Current Time: Aug 1, 2014 at 5:37:35 AM

Latest Report: Aug 1, 2014 at 4:40 AM


Visibility: 4 mi

Pressure: 29.74 "Hg

Humidity: 66%

Dew point: 70 °F

Location of TiruvarurLocation

Historic Weather in Tiruvarur — Graph

°F

Tiruvarur temperature yesterday

Maximum temperature yesterday: 100 °F (at 1:40 PM)
Minimum temperature yesterday: 82 °F (at 4:40 AM)
Average temperature yesterday: 90 °F

Past Weeks' High & Low Weather Summary

 TemperatureHumidityPressure
High102 °F (Jul 26, 1:40 PM)70% (Jul 22, 3:40 AM)29.83 "Hg (Jul 22, 3:40 AM)
Low81 °F (Jul 26, 5:40 AM)29% (Jul 30, 1:40 PM)29.65 "Hg (Jul 17, 2:40 PM)
Average89 °F52%29.74 "Hg
* Reported Jul 17 3:40 AM — Aug 1 3:40 AM, Tiruvarur, Weather by CustomWeather, © 2014

Note: Actual official high and low records may vary slightly from our data, if they occured in-between our weather recording intervals... More about our weather records

Advertising

Tiruvarur weather history for previous 24 hours

 ConditionsComfort  
Time TempWeatherWind HumidityBarometerVisibility
3:40 AM
Aug 1
82 °FPassing clouds.12 mph66%29.71 "Hg4 mi
2:40 AM82 °FPassing clouds.9 mph66%29.71 "Hg4 mi
1:40 AM84 °FPassing clouds.9 mph62%29.74 "Hg4 mi
12:40 AM84 °FPassing clouds.12 mph62%29.74 "Hg4 mi
11:40 PM
Jul 31
84 °FPassing clouds.12 mph66%29.77 "Hg4 mi
10:40 PM86 °FPartly cloudy.14 mph62%29.74 "Hg4 mi
9:40 PM88 °FPartly cloudy.16 mph55%29.74 "Hg4 mi
8:40 PM88 °FPartly cloudy.14 mph55%29.71 "Hg4 mi
7:40 PM90 °FPartly cloudy.12 mph52%29.71 "Hg4 mi
6:40 PM95 °FBroken clouds.10 mph44%29.68 "Hg4 mi
5:40 PM97 °FBroken clouds.15 mph39%29.68 "Hg4 mi
4:40 PM99 °FBroken clouds.20 mph37%29.65 "Hg5 mi
3:40 PM100 °FScattered clouds.21 mph35%29.65 "Hg5 mi
2:40 PM100 °FPassing clouds.23 mph35%29.65 "Hg5 mi
1:40 PM100 °FPassing clouds.17 mph35%29.68 "Hg4 mi
12:40 PM99 °FPassing clouds.22 mph37%29.71 "Hg4 mi
11:40 AM97 °FPartly sunny.21 mph39%29.74 "Hg4 mi
10:40 AM93 °FPartly sunny.18 mph44%29.74 "Hg4 mi
9:40 AM91 °FPartly sunny.14 mph46%29.77 "Hg4 mi
8:40 AM88 °FBroken clouds.14 mph55%29.77 "Hg4 mi
7:40 AM86 °FBroken clouds.14 mph52%29.74 "Hg4 mi
6:40 AM84 °FBroken clouds.9 mph58%29.74 "Hg4 mi
5:40 AM84 °FPassing clouds.9 mph58%29.74 "Hg4 mi
Weather by CustomWeather, © 2014

See weather overviewHow to use our weather pages